Theta_e
299 299 299 300 300 300 299 299 299 299 299 299 299 299 299 300 301 302 304 311 311 312 312 315 317 324 318 329 329 322 319 320 322 323 325 326 327 330 330 329 328 330 331 331 332
299 300 300 300 300 300 300 300 300 300 300 300 299 299 299 299 300 301 307 308 308 307 309 313 316 319 317 322 330 323 319 319 319 322 324 322 322 324 326 326 327 328 329 331 331
300 300 300 300 300 300 300 300 300 300 300 300 300 300 300 300 299 304 311 312 312 313 308 312 315 315 324 329 329 329 329 322 322 322 323 323 323 325 324 324 325 326 328 329 330
300 301 301 301 300 300 300 300 300 300 300 300 300 300 300 301 299 312 309 312 311 311 314 308 315 315 313 320 328 329 329 329 327 326 325 325 325 325 324 324 325 326 327 328 328
301 301 301 301 301 300 300 300 300 300 300 299 300 300 301 305 303 303 303 307 310 308 315 311 311 314 312 312 317 320 326 328 330 330 329 329 328 327 326 326 327 327 327 328 329
300 300 300 300 300 300 300 300 303 306 304 300 300 300 305 306 305 304 305 303 304 305 310 315 313 313 313 312 315 315 318 319 322 323 324 323 323 324 325 326 327 327 328 328 327
300 300 300 300 300 300 302 305 306 307 307 304 302 302 308 306 307 308 307 306 303 305 310 310 313 313 314 313 314 314 313 315 316 316 316 321 322 323 324 324 325 326 326 326 326
300 300 300 300 300 301 307 306 306 305 307 308 306 307 308 308 309 310 311 310 308 304 308 311 310 309 312 314 315 316 313 314 316 316 317 319 323 323 324 325 325 325 326 326 326
300 300 300 300 301 303 307 306 308 308 307 305 307 311 308 306 309 309 311 307 309 305 307 309 308 309 311 311 313 313 318 317 317 318 318 319 322 322 323 323 323 324 325 325 325
300 300 300 300 301 303 307 306 304 309 306 306 308 308 307 308 309 307 308 307 307 307 307 308 308 307 306 310 315 316 317 318 319 318 318 319 320 321 322 322 322 322 323 323 324
300 300 300 301 303 304 307 306 307 306 305 306 305 306 307 308 308 308 307 306 307 308 307 306 304 307 309 310 312 312 314 316 317 317 318 318 319 319 320 321 321 322 323 323 323
300 300 301 302 305 306 307 308 307 306 305 307 306 306 307 307 308 308 308 306 307 305 305 305 306 308 308 309 310 310 311 312 314 315 315 317 318 317 318 319 321 321 321 322 323
301 300 301 303 303 303 305 307 307 307 305 306 307 308 307 307 308 308 307 306 306 305 304 305 307 308 308 308 309 310 311 312 313 314 314 314 315 315 315 315 317 320 321 322 322
301 301 302 303 304 305 304 307 308 307 303 307 308 309 306 308 308 309 309 306 306 305 305 304 305 306 306 308 307 307 311 312 314 313 314 314 315 314 315 315 315 316 318 318 319
301 301 302 305 306 307 306 307 308 307 301 307 307 307 307 308 307 309 310 310 310 309 305 305 305 305 306 307 308 309 308 310 313 313 312 313 312 314 314 314 314 315 316 317 318
301 301 302 306 307 308 307 308 308 302 302 308 307 307 306 306 307 309 310 310 309 311 310 307 307 306 305 306 306 307 308 309 309 311 312 313 313 314 313 314 314 316 318 320 321
301 302 303 306 308 308 308 308 302 303 307 308 308 308 307 306 307 308 308 309 310 312 312 311 306 308 307 306 307 306 305 309 310 311 313 313 313 314 314 315 315 315 317 319 319
302 304 303 307 309 308 308 302 300 307 308 307 308 307 306 306 307 308 308 310 311 311 311 312 312 311 312 310 310 305 304 307 312 314 312 313 315 315 314 315 316 316 317 318 319
305 307 309 308 309 309 307 302 306 307 307 308 308 307 306 306 307 306 307 310 311 310 312 312 311 311 311 310 309 309 305 306 306 309 310 313 313 314 315 315 315 314 316 317 318
306 309 311 310 309 309 303 306 306 307 307 308 308 307 307 306 307 306 308 310 311 310 308 309 310 310 310 309 309 308 309 306 305 310 312 313 314 315 315 315 315 315 315 319 324
306 310 310 310 308 308 301 304 307 307 307 308 307 307 306 307 307 307 309 309 310 309 310 308 308 310 309 308 306 308 309 309 306 306 311 313 314 313 315 315 315 314 317 320 331
307 305 310 309 306 300 301 306 306 308 307 308 307 307 306 307 307 308 308 309 309 309 311 309 308 311 309 307 308 309 309 310 309 310 309 311 312 314 312 313 314 317 324 327 334
307 308 308 306 299 298 302 305 306 308 308 308 308 307 307 307 308 308 309 309 307 309 310 309 307 309 307 310 310 311 311 310 310 309 312 310 311 313 312 313 323 330 332 333 335
308 304 306 305 304 303 303 305 307 306 308 307 307 306 307 307 307 308 308 308 308 309 310 310 309 309 310 308 309 310 312 315 314 313 313 313 312 313 313 315 315 324 333 333 336
306 303 305 301 302 302 302 304 307 308 308 307 307 307 308 309 308 308 307 308 308 308 309 308 310 309 310 310 311 312 312 312 315 314 315 315 315 314 315 316 317 320 333 334 335
296 301 302 302 303 304 303 305 307 307 307 308 308 308 307 308 309 309 309 309 309 307 309 306 308 311 311 311 311 313 313 313 314 315 314 314 314 315 316 319 328 328 332 334 335
298 300 302 302 302 303 303 306 306 306 306 307 308 308 307 307 307 306 306 307 308 308 305 307 309 309 309 309 313 313 314 314 315 313 313 316 316 319 323 328 330 330 333 334 335
Wind_Speed
14 14 15 15 15 15 16 18 18 16 16 17 18 19 23 25 27 26 29 27 23 17 23 19 14 10 15 12 13 7 2 5 6 8 4 8 7 14 13 18 19 4 6 11 5
15 15 15 16 17 17 17 17 17 19 19 18 19 20 22 24 28 32 24 22 22 20 22 22 27 14 8 11 9 6 6 10 7 8 2 10 10 24 11 21 19 19 15 4 6
16 16 17 17 17 18 18 19 19 19 19 21 22 23 24 23 25 3 10 17 12 12 27 21 20 22 16 12 12 7 10 15 14 18 13 12 8 24 18 18 25 15 23 20 22
17 18 18 18 19 19 20 21 22 22 21 20 21 24 25 20 6 6 4 5 4 7 16 30 20 12 8 11 15 6 14 20 17 15 9 11 12 15 25 30 37 38 33 28 32
17 18 19 19 20 21 21 23 23 23 23 22 20 22 23 10 20 18 20 26 19 15 7 26 24 16 8 6 11 15 9 13 21 24 20 21 23 23 29 31 33 38 38 37 34
19 20 21 22 22 21 22 21 20 20 20 20 20 20 11 8 16 15 19 18 18 16 7 15 11 23 6 6 14 2 11 19 23 26 20 14 22 24 28 37 34 32 33 35 32
16 18 20 20 19 18 16 17 17 18 20 18 16 13 11 32 27 25 23 23 22 18 16 6 26 12 8 1 16 14 8 11 14 6 8 8 21 25 31 38 39 33 33 39 38
22 22 22 22 20 15 13 15 13 15 16 14 19 9 14 23 17 15 17 25 18 18 18 14 10 11 9 7 5 3 4 14 17 13 8 10 31 9 14 27 36 36 36 35 41
23 22 22 21 18 14 14 18 14 7 12 21 11 8 14 23 16 19 19 35 20 13 15 12 7 8 5 4 3 5 12 15 11 5 7 12 37 13 30 27 30 30 37 41 43
25 24 23 20 18 16 13 16 16 9 15 13 5 6 13 26 30 32 24 20 19 13 16 15 9 5 3 6 16 10 14 3 4 3 8 12 30 18 19 18 24 26 31 36 44
27 26 23 17 13 10 13 16 20 8 26 13 21 16 21 24 27 23 20 18 20 7 4 9 4 15 18 15 12 6 6 2 4 7 12 17 27 24 21 27 29 36 40 44 44
27 25 23 14 7 9 10 9 15 14 12 9 12 17 13 17 14 23 12 4 2 6 7 3 17 7 1 3 9 12 10 8 6 11 5 10 17 17 14 16 25 27 29 34 35
24 23 22 14 6 13 12 12 13 11 3 13 12 12 19 18 7 16 4 2 4 6 6 8 6 5 11 6 10 7 8 9 8 9 18 12 18 15 12 15 26 29 36 34 36
23 21 19 14 7 17 12 15 15 10 2 5 6 6 25 17 4 12 8 6 3 6 5 6 7 10 7 6 15 15 4 9 4 5 9 0 16 20 18 23 20 19 33 34 41
23 19 13 12 14 16 17 18 13 1 3 13 5 15 28 6 16 8 5 1 5 9 3 8 6 3 10 10 8 7 12 11 10 8 4 4 4 24 5 17 20 20 30 41 46
24 16 13 10 14 16 19 20 2 4 4 7 12 15 12 19 13 10 7 6 4 6 6 17 14 9 7 8 8 6 4 8 9 2 5 11 9 24 9 16 12 10 22 28 29
23 16 11 5 12 17 19 8 4 4 7 7 14 16 16 8 11 5 13 8 2 3 2 5 15 7 8 6 5 5 3 1 2 3 12 12 11 25 7 4 4 8 18 27 27
26 14 4 3 8 14 17 4 7 2 4 6 10 16 4 10 8 9 10 5 3 9 2 1 3 9 6 11 7 7 9 4 6 5 5 11 13 11 10 15 25 25 27 27 29
21 9 5 2 6 11 8 5 2 4 8 9 10 4 4 12 6 6 4 3 2 6 1 4 3 2 2 1 5 2 4 9 4 3 2 7 9 13 21 18 9 12 16 24 28
18 4 8 3 5 8 5 3 3 6 11 7 4 2 5 9 6 7 4 2 4 5 2 4 0 4 5 3 6 5 3 3 1 5 5 5 8 12 6 23 3 9 10 17 17
14 3 7 3 7 2 2 5 7 12 14 4 4 5 6 5 5 4 5 7 2 6 6 3 1 3 2 4 3 2 2 4 3 5 4 3 6 7 12 8 9 14 22 19 20
10 2 4 5 4 1 1 6 13 10 11 5 4 4 4 6 5 4 4 4 8 2 4 3 2 4 8 7 8 2 4 3 3 6 8 2 7 8 6 6 9 14 28 14 23
14 5 6 6 2 3 6 6 5 7 8 5 5 3 2 4 4 6 6 6 15 2 2 2 1 3 7 3 4 1 5 5 3 1 10 5 7 8 8 11 13 7 2 16 28
8 4 4 4 4 1 4 4 7 14 9 12 6 5 5 6 6 7 9 6 7 5 10 5 3 4 4 7 6 9 11 5 4 3 6 20 13 30 12 13 16 14 8 12 28
8 2 2 4 4 7 3 4 7 8 4 8 4 4 14 6 14 7 6 5 8 13 4 6 5 5 9 12 14 15 16 17 12 8 7 7 7 21 9 14 13 20 15 19 19
7 6 5 13 12 5 5 3 8 12 5 8 6 17 15 10 14 22 19 9 10 6 3 3 4 3 9 10 19 18 19 18 17 17 13 13 19 14 7 18 16 18 22 23 21
10 4 6 8 4 4 3 5 14 16 11 12 15 15 13 16 20 31 31 32 21 16 7 6 4 1 6 10 11 12 20 22 15 12 12 10 8 7 13 8 6 7 22 28 30
Wind_Direction
1 360 358 355 350 346 341 337 333 330 322 318 313 304 296 294 288 284 270 265 267 256 249 246 242 234 221 219 209 195 116 217 233 170 227 314 344 281 308 307 322 340 338 270 214
2 359 358 354 350 346 342 339 334 332 330 327 320 314 310 307 300 286 290 268 259 251 245 239 237 231 197 220 203 178 186 223 199 205 107 322 333 311 333 314 301 297 301 226 210
6 2 357 353 348 344 341 337 332 329 326 325 323 320 318 323 318 306 177 164 173 220 224 225 236 233 214 216 196 206 221 228 243 223 228 262 274 271 298 297 274 286 299 291 291
0 358 352 347 343 337 334 332 330 328 325 320 318 316 317 321 292 176 205 185 355 303 228 214 215 214 189 205 205 237 218 227 252 247 240 232 246 248 248 253 274 286 290 283 290
0 356 351 347 341 335 331 330 330 325 318 312 313 311 318 314 285 294 268 267 271 291 304 218 212 212 198 203 219 244 238 232 246 258 254 264 260 259 254 257 267 272 278 280 285
356 353 351 347 342 338 337 336 337 330 318 313 315 313 321 295 314 312 301 285 278 260 278 222 218 215 254 215 206 148 227 245 248 257 265 256 265 265 267 273 263 266 271 277 277
354 354 354 353 350 349 353 352 347 325 329 327 317 312 295 283 312 296 292 290 275 244 253 219 221 219 233 293 252 260 292 281 240 215 241 283 273 253 261 267 272 275 274 281 282
356 355 353 352 352 4 13 5 343 301 323 345 339 330 280 329 329 344 2 338 302 248 238 228 218 253 230 268 311 216 191 244 254 227 221 184 261 239 264 251 260 264 272 274 278
350 347 348 351 351 2 2 3 1 6 2 339 337 341 286 324 326 326 319 329 318 246 229 228 228 218 193 160 350 235 239 228 260 203 208 185 257 248 254 258 262 267 272 274 278
345 343 345 348 349 348 351 341 332 294 335 326 335 325 316 317 325 310 289 307 329 301 218 220 207 173 168 160 213 217 229 295 182 206 225 236 256 252 245 253 262 266 271 276 280
343 342 343 344 342 337 334 346 13 336 321 280 279 268 292 330 320 316 295 292 307 242 213 195 166 212 209 223 272 339 301 15 337 227 218 225 250 257 255 254 258 260 263 265 267
342 340 339 343 349 326 336 7 355 320 303 303 279 265 328 336 303 327 313 213 281 303 318 295 231 222 94 199 232 261 275 277 281 270 272 280 273 281 267 258 258 261 260 260 271
343 339 337 347 292 348 352 354 338 327 272 289 316 293 327 325 285 310 282 158 222 258 249 231 260 238 236 249 248 235 227 254 246 310 299 304 286 272 262 255 256 255 260 263 264
347 339 337 358 357 344 4 347 340 320 23 283 339 314 345 340 286 323 346 196 224 235 258 246 235 245 258 238 229 253 230 254 261 211 259 337 289 274 270 266 260 250 258 263 269
350 335 334 328 341 344 342 338 341 331 11 315 351 337 330 311 320 318 310 84 268 263 192 231 284 251 236 240 230 250 236 251 227 241 274 254 290 278 244 260 250 248 249 253 261
347 333 323 308 331 345 337 335 342 50 278 330 346 327 327 326 333 333 300 260 272 277 225 231 242 244 219 252 245 253 224 229 225 132 250 224 203 275 238 251 248 240 251 256 265
345 324 304 295 334 343 336 347 37 90 348 345 317 320 318 318 323 337 324 299 109 331 307 345 230 257 227 236 252 177 85 254 138 190 229 199 201 238 268 276 256 255 263 271 275
345 338 300 299 349 349 341 42 60 343 291 302 309 310 321 346 318 332 323 342 145 217 255 105 240 184 211 200 200 191 164 185 182 183 226 249 233 244 231 259 260 262 269 277 282
356 12 33 323 331 346 356 37 229 325 313 320 326 311 312 333 302 333 318 277 325 28 38 259 239 51 55 54 150 226 162 216 360 240 223 232 276 281 271 269 277 271 283 278 269
355 43 29 352 326 331 63 284 245 290 311 312 278 271 303 317 317 333 293 302 2 16 150 267 337 359 13 355 211 169 205 100 138 224 238 258 253 233 251 251 279 273 252 273 251
359 44 24 17 314 344 124 236 273 295 339 320 280 284 289 305 285 284 312 311 27 342 321 320 84 278 14 220 209 283 197 210 195 210 223 290 259 205 213 271 324 300 294 277 208
3 51 331 312 2 20 352 301 308 334 340 300 282 239 262 298 273 275 282 286 336 3 328 351 197 238 235 240 248 272 246 170 197 231 251 256 265 276 295 321 303 303 307 208 186
344 319 29 346 65 320 302 286 288 337 314 317 293 273 303 276 307 277 254 268 315 252 206 284 297 319 339 18 53 204 246 214 252 289 248 226 251 316 14 333 328 355 53 154 161
349 355 338 37 58 122 311 275 330 320 295 318 266 288 334 290 248 269 273 292 337 242 274 147 218 193 203 264 317 295 287 269 203 245 252 244 288 279 316 334 320 303 161 156 157
7 356 16 308 331 318 266 262 321 343 265 295 292 293 314 283 296 251 237 295 297 282 258 162 227 217 245 261 283 276 263 265 244 237 240 303 288 272 311 298 302 293 167 157 168
7 357 327 290 278 292 310 277 315 327 305 296 275 305 305 276 272 288 280 250 246 291 262 191 251 247 272 256 257 277 254 252 255 252 254 261 274 277 271 307 313 253 169 166 177
349 308 285 277 287 302 268 315 312 309 300 259 298 306 299 291 297 287 276 269 257 256 227 187 203 247 258 287 301 280 231 224 228 231 216 228 257 332 312 315 321 292 181 174 174